Location: Shenandoah County Park
(38.9356°N, 78.4524°W)
Time: 19:41:47
(UTC-05:00)

COSMOS 1275 DEB - Visible Passes

Search period start: 02 February 2023 00:00
Search period end: 12 February 2023 00:00
Orbit: 758 x 768 km, 82.8° (Epoch: 29 January)

Date Brightness Start Highest point End Pass type
(mag) Time Alt. Az. Time Alt. Az. Time Alt. Az.
02 Feb ? 06:47:49 10° SE 06:51:18 19° E 06:54:49 10° NE visible
02 Feb ? 18:55:27 10° N 19:00:39 73° E 19:05:50 10° SSE visible
02 Feb ? 20:39:07 10° WNW 20:40:47 11° W 20:42:27 10° W visible
03 Feb ? 18:17:47 10° N 18:22:35 36° ENE 18:27:20 10° SE visible
03 Feb ? 19:59:08 10° NW 20:03:11 23° W 20:07:13 10° SW visible
04 Feb ? 19:20:29 10° NNW 19:25:26 46° W 19:30:22 10° SSW visible
05 Feb ? 06:34:10 10° SE 06:38:06 23° E 06:42:04 10° NE visible
05 Feb ? 18:42:19 10° N 18:47:32 88° E 18:52:44 10° S visible
06 Feb ? 05:59:09 10° E 06:00:30 11° E 06:01:51 10° ENE visible
06 Feb ? 18:04:32 10° N 18:09:29 44° ENE 18:14:25 10° SSE visible
06 Feb ? 19:46:20 10° NW 19:49:57 19° W 19:53:34 10° SW visible
07 Feb ? 19:07:27 10° NNW 19:12:13 38° W 19:16:59 10° SSW visible
08 Feb ? 06:20:33 10° SE 06:24:51 27° E 06:29:10 10° NNE visible
08 Feb ? 18:29:08 10° N 18:34:20 77° W 18:39:30 10° S visible
09 Feb ? 05:44:40 10° ESE 05:47:10 14° E 05:49:41 10° NE visible
09 Feb ? 19:33:35 10° NW 19:36:38 16° W 19:39:41 10° WSW visible
10 Feb ? 18:54:23 10° NNW 18:58:55 31° W 19:03:26 10° SSW visible
11 Feb ? 06:06:57 10° SSE 06:11:31 33° E 06:16:06 10° NNE visible
11 Feb ? 18:15:55 10° NNW 18:21:03 63° W 18:26:10 10° S visible
